Weather History for K8D3 - October, 2011

Change the Weather History Date:

Saturday, October 15, 2011

  Actual Average Record
Temperature  
Mean Temperature 47 °F 47 °F  
Max Temperature 56 °F 58 °F 90 °F (1958)
Min Temperature 38 °F 36 °F 10 °F (1937)
Degree Days  
Heating Degree Days 18 18  
Month to date heating degree days 78 230  
Since 1 July heating degree days 294 475  
Cooling Degree Days 0 0  
Month to date cooling degree days 19 0  
Year to date cooling degree days 642 523  
Moisture  
Dew Point 36 °F    
Average Humidity 65    
Maximum Humidity 82    
Minimum Humidity 47    
Precipitation  
Precipitation 0.01 in 0.07 in 1.50 in (1998)
Month to date precipitation 0.99 1.24  
Year to date precipitation 20.92 20.52  
Snow  
Snow 0.00 in - - ()
Month to date snowfall 0.0  
Since 1 July snowfall 0.0  
Snow Depth 0.00 in    
Sea Level Pressure  
Sea Level Pressure 29.90 in    
Wind  
Wind Speed 9 mph (NW)    
Max Wind Speed 16 mph    
Max Gust Speed 22 mph    
T = Trace of Precipitation, MM = Missing Value Source: NWS Daily Summary

Daily Weather History Graph

Daily Weather History Graph

Search for Another Location

Airport or City:

Trip Planner

Search our weather history database for the weather conditions in past years. The results will help you decide how hot, cold, wet, or windy it might be!

Date:

Astronomy

Oct. 15, 2011 Rise Set
Actual Time 7:44 AM CDT 6:42 PM CDT
Civil Twilight 7:14 AM CDT 7:12 PM CDT
Nautical Twilight 6:39 AM CDT 7:46 PM CDT
Astronomical Twilight 6:05 AM CDT 8:21 PM CDT
Moon 8:27 PM CDT (10/15) 11:21 AM CDT (10/15)
Length of Visible Light 11h 58m
Length of Day
10h 58m
Waning Gibbous, 89% of the Moon is Illuminated
Oct 15
Waning Gibbous
Oct 19
Last Quarter
Oct 26
New
Nov 2
First Quarter
Nov 10
Full

Hourly Weather History & Observations

Time (CDT) Temp. Windchill Dew Point Humidity Pressure Visibility Wind Dir Wind Speed Gust Speed Precip Events Conditions
12:56 AM 44.1 °F 38.6 °F 34.0 °F 68% 29.92 in - NW 10.4 mph - N/A   Unknown
1:56 AM 43.0 °F 36.8 °F 35.1 °F 74% 29.92 in - NW 11.5 mph - N/A   Unknown
2:56 AM 43.0 °F 35.7 °F 34.0 °F 71% 29.93 in - NW 15.0 mph 21.9 mph N/A   Unknown
3:56 AM 43.0 °F 36.8 °F 34.0 °F 71% 29.92 in - NW 11.5 mph - N/A   Unknown
4:56 AM 41.0 °F 36.4 °F 34.0 °F 76% 29.93 in - NW 6.9 mph - N/A   Unknown
5:56 AM 41.0 °F 34.7 °F 34.0 °F 76% 29.93 in - WNW 10.4 mph - N/A   Unknown
6:56 AM 39.0 °F 36.8 °F 33.1 °F 79% 29.94 in - WNW 3.5 mph - N/A   Unknown
7:56 AM 42.1 °F 35.2 °F 34.0 °F 73% 29.94 in - NW 12.7 mph - N/A   Unknown
8:56 AM 45.0 °F 39.7 °F 35.1 °F 68% 29.95 in - WNW 10.4 mph - N/A   Unknown
9:56 AM 48.9 °F - 35.1 °F 59% 29.94 in - NW 9.2 mph - N/A   Unknown
10:56 AM 53.1 °F - 36.0 °F 52% 29.92 in - NW 11.5 mph - N/A   Unknown
11:56 AM 54.0 °F - 36.0 °F 51% 29.91 in - NW 11.5 mph - N/A   Unknown
12:56 PM 54.0 °F - 36.0 °F 51% 29.89 in - NW 6.9 mph - N/A   Unknown
1:56 PM 55.0 °F - 36.0 °F 49% 29.86 in - NW 9.2 mph - N/A   Unknown
2:56 PM 54.0 °F - 37.0 °F 53% 29.86 in - NNW 8.1 mph - N/A   Unknown
3:56 PM 54.0 °F - 36.0 °F 51% 29.86 in - NW 10.4 mph - N/A   Unknown
4:56 PM 54.0 °F - 36.0 °F 51% 29.86 in - WNW 8.1 mph - N/A   Unknown
5:56 PM 52.0 °F - 34.0 °F 50% 29.87 in - WNW 11.5 mph - N/A   Unknown
6:56 PM 50.0 °F - 35.1 °F 57% 29.87 in - WNW 9.2 mph - N/A   Unknown
7:56 PM 48.0 °F - 37.9 °F 68% 29.88 in - WNW 10.4 mph - N/A   Unknown
8:56 PM 46.9 °F - 39.9 °F 77% 29.88 in - NW 6.9 mph - 0.01 in   Unknown
9:56 PM 46.9 °F - 39.9 °F 77% 29.88 in - WNW 5.8 mph - N/A   Unknown
10:56 PM 46.0 °F 43.1 °F 37.9 °F 73% 29.88 in - NNW 5.8 mph - N/A   Unknown
11:56 PM 43.0 °F 39.5 °F 37.0 °F 80% 29.88 in - NW 5.8 mph - N/A   Unknown